Wind_Speed
24 25 24 24 24 24 24 23 24 24 24 24 23 23 23 23 22 22 22 21 20 20 19 19 18 17 17 16 17 17 17 17 17 17 16 16 16 16 15 14 13 12 12 12 13 13 13 13 13 13 14 14 14 14 14 14 14 14 14 14 13 13 13 13 14 14 14 14 15
24 24 24 24 24 23 23 23 23 23 24 24 24 23 23 23 23 22 22 21 20 19 18 18 17 17 16 16 17 17 17 18 18 17 17 16 16 15 14 13 12 12 12 12 12 12 12 12 12 12 12 12 12 12 12 12 12 12 12 12 12 12 12 13 13 14 14 15 15
23 23 23 23 23 23 23 23 23 23 24 24 24 24 24 24 23 22 21 20 18 17 17 16 16 16 16 17 17 17 18 18 17 16 16 15 14 14 14 13 12 12 11 11 11 11 12 11 11 11 11 11 10 10 10 10 10 11 11 11 11 12 12 12 13 14 14 15 16
23 23 23 23 23 23 22 22 22 23 24 24 25 25 24 24 23 22 21 19 17 16 16 15 15 16 16 17 17 17 17 17 16 15 14 13 13 13 13 12 12 11 10 10 10 10 11 11 11 11 10 10 10 9 10 10 9 9 10 10 10 11 11 12 13 13 14 14 15
22 22 22 22 22 22 22 22 23 23 23 24 25 25 25 24 23 21 20 18 16 15 15 15 16 16 16 17 17 17 16 15 14 13 12 11 11 12 12 12 11 10 10 9 9 9 10 10 10 10 10 10 10 10 9 9 9 8 9 9 9 10 10 11 11 12 13 13 14
21 21 21 21 21 21 22 22 23 23 23 24 24 24 24 23 22 20 18 17 15 15 15 15 15 16 16 16 16 15 15 14 13 12 10 10 10 10 10 11 11 10 10 9 9 9 9 10 10 10 11 11 11 10 10 9 9 8 9 9 9 10 10 10 11 11 12 13 14
20 20 20 20 21 21 21 22 22 23 23 23 23 23 23 22 21 19 17 16 15 15 15 15 15 15 15 15 15 15 14 13 12 11 10 9 9 9 10 10 11 11 10 10 10 10 10 10 10 11 11 12 12 11 11 10 9 9 9 9 10 10 10 10 11 12 12 13 14
19 19 19 20 20 20 21 21 21 22 22 22 22 22 21 20 19 18 17 15 15 14 14 14 14 14 14 14 14 14 14 13 12 11 10 10 9 9 10 10 11 11 11 11 11 11 11 12 11 11 11 12 12 12 11 11 10 9 9 10 10 11 11 11 12 12 13 14 14
19 19 19 19 20 20 20 20 21 21 21 21 21 20 20 19 18 17 16 15 14 13 13 13 13 13 14 14 14 14 14 14 13 12 11 11 11 11 11 11 12 12 12 13 13 13 13 13 12 12 12 12 12 12 12 11 10 10 10 11 12 12 12 13 13 13 13 14 14
18 18 19 19 19 19 19 19 20 20 20 20 20 20 19 18 17 16 15 13 12 12 12 12 12 13 13 14 14 14 14 14 14 14 13 13 13 12 13 13 13 14 14 15 15 14 14 14 13 13 13 13 13 13 12 12 11 11 11 13 13 14 14 14 14 14 14 14 15
18 18 18 18 18 19 19 19 19 20 20 20 20 19 19 18 17 15 14 12 11 11 11 11 12 13 13 13 14 14 14 14 15 15 15 15 14 14 14 14 15 15 16 17 17 16 15 14 14 13 13 13 13 13 13 12 12 12 13 14 15 16 16 16 16 15 15 15 15
17 17 18 18 18 18 19 19 19 20 20 20 20 19 18 17 16 15 13 11 10 10 10 11 12 13 13 13 13 13 14 14 14 14 15 15 15 15 15 15 16 16 16 17 17 17 16 15 13 13 12 13 13 13 13 13 13 14 15 16 17 18 18 18 17 16 16 15 15
17 17 17 17 18 19 19 20 20 21 21 20 20 19 18 17 15 14 12 10 10 10 10 11 12 12 13 13 13 13 13 13 13 14 14 15 15 15 16 16 16 16 16 16 16 16 15 14 13 12 11 12 12 12 12 13 14 15 16 17 18 18 19 19 18 17 16 15 14
17 17 17 17 18 19 20 21 21 22 21 21 19 18 17 16 14 12 11 9 9 10 10 11 11 12 12 12 12 12 12 12 13 13 13 14 14 15 15 15 15 15 15 14 14 14 13 13 12 11 11 11 11 12 13 14 15 16 16 17 17 18 18 18 17 16 15 14 14
16 17 17 18 19 20 21 22 23 23 22 21 19 18 16 15 13 11 10 9 9 10 10 11 11 11 11 11 11 12 12 12 12 13 13 13 14 14 14 14 14 14 13 12 12 12 11 11 11 10 11 11 12 12 13 15 16 17 17 17 18 18 18 17 16 15 14 13 13
16 17 18 18 20 21 22 23 23 23 22 20 18 16 15 13 11 10 9 9 9 10 10 11 11 11 11 10 11 11 12 12 13 13 13 14 13 13 13 13 13 12 11 11 11 11 11 11 11 11 11 12 13 13 14 15 16 17 18 18 18 18 18 17 16 14 14 14 14
17 18 19 20 21 21 22 23 23 23 22 20 17 15 13 12 10 9 8 9 10 10 10 10 10 10 10 10 11 11 12 13 13 13 14 14 14 13 13 12 12 11 11 11 11 11 11 12 12 12 13 13 14 14 15 15 16 17 18 18 18 18 18 17 16 15 15 15 16
18 19 20 20 21 22 22 23 23 22 21 19 16 14 12 10 9 8 8 9 10 10 10 10 9 9 10 11 11 12 12 13 13 14 14 14 13 13 12 12 11 11 11 11 12 12 12 13 13 13 14 14 14 15 15 15 16 17 17 18 19 19 18 17 16 16 16 17 18
19 19 20 20 21 21 22 22 22 22 21 19 16 13 11 9 9 9 9 9 9 10 10 9 9 9 10 11 12 12 13 13 14 14 13 13 13 12 12 11 11 11 11 12 12 12 13 13 13 14 14 14 15 15 15 15 16 16 17 18 18 19 19 18 17 17 17 18 18
19 20 20 20 20 21 21 21 22 21 20 18 16 13 11 9 9 9 9 9 9 9 9 9 9 10 11 11 12 12 13 13 14 14 13 13 13 12 12 12 12 12 12 12 12 13 13 14 14 14 14 14 14 14 15 15 16 16 17 18 18 19 19 19 19 19 19 19 19
19 19 19 20 20 20 20 21 21 21 20 18 16 13 11 10 9 9 9 9 10 9 9 10 10 11 12 12 12 12 12 13 13 13 13 13 13 13 13 13 13 13 13 13 13 14 14 15 15 14 14 14 14 14 15 15 16 16 17 17 18 19 20 20 20 19 19 18 18
18 18 19 19 19 19 20 20 21 21 20 18 16 14 12 11 10 10 10 10 10 10 11 11 12 12 12 12 12 12 12 12 12 13 13 13 13 13 13 13 13 13 14 14 15 15 15 15 15 15 14 14 14 14 14 15 16 17 17 18 19 19 20 20 20 19 18 18 18
17 18 18 18 18 19 19 20 20 20 19 18 16 14 13 11 11 10 10 10 11 12 13 14 14 14 13 13 13 13 12 12 12 12 13 13 14 14 14 13 14 14 14 15 15 15 16 16 16 16 15 14 14 14 15 15 16 17 18 19 20 20 20 20 19 18 18 18 18
17 17 17 17 18 18 19 19 20 20 19 17 15 14 13 12 11 11 11 11 12 14 16 16 16 15 14 13 13 13 13 13 12 12 13 13 13 14 13 13 14 14 14 15 15 15 15 16 16 16 15 15 15 15 15 16 16 17 19 20 21 21 21 21 20 19 18 18 19
17 17 17 17 17 18 18 19 19 19 18 16 15 13 12 11 11 11 11 12 14 15 16 17 16 15 14 14 14 14 13 13 13 13 13 13 13 13 13 13 14 14 15 15 15 15 15 15 15 15 15 15 15 16 16 16 17 18 19 20 21 21 22 21 21 20 19 19 19
16 17 17 17 17 17 18 19 19 18 17 15 14 12 11 11 11 11 12 13 15 16 16 16 15 15 15 15 14 14 13 13 13 13 13 12 13 13 13 14 14 14 15 15 15 15 15 15 14 14 14 15 15 16 16 17 17 18 19 19 20 21 21 21 20 20 20 20 20
16 16 17 17 17 17 18 18 18 18 16 14 13 11 11 10 10 11 12 14 15 15 15 15 15 15 15 15 15 14 13 13 13 13 12 12 12 13 13 14 14 15 15 15 15 15 14 14 14 14 14 14 15 16 16 17 17 18 18 18 19 19 19 20 20 20 21 21 22
16 16 17 17 17 17 18 18 18 17 15 13 12 10 10 10 11 12 13 14 15 15 15 15 15 15 15 15 15 15 14 13 13 12 12 12 12 13 13 14 14 15 15 15 15 14 14 14 14 14 14 14 15 15 16 17 17 17 17 17 18 18 18 19 20 21 22 22 23
16 16 17 17 17 17 18 18 17 16 14 12 11 10 10 11 12 13 14 15 15 16 15 15 15 16 16 16 16 16 15 14 13 13 13 13 13 13 14 14 15 15 15 15 14 14 14 14 14 14 14 15 15 15 16 16 16 16 16 16 17 17 18 19 19 20 21 22 23
16 16 16 16 17 17 17 17 16 15 13 12 11 10 11 12 13 14 15 16 16 16 16 16 16 16 17 17 17 16 16 15 14 13 13 13 14 14 14 15 15 15 15 15 14 14 14 14 14 14 15 15 15 15 15 15 16 16 16 16 16 16 17 18 19 20 22 23 23
16 16 16 16 17 17 17 17 16 14 13 11 11 11 12 13 14 15 16 16 16 16 16 16 17 17 18 18 18 17 16 16 15 14 14 14 14 15 15 15 15 15 15 15 14 14 14 14 14 15 15 15 15 15 15 15 15 15 15 15 16 16 17 18 20 21 22 23 24
15 15 16 16 17 17 17 16 15 13 12 11 11 12 13 14 15 15 16 16 16 16 16 16 17 18 19 19 19 17 16 15 15 15 15 15 15 15 15 15 15 15 15 14 14 14 13 14 14 15 15 15 15 14 14 14 15 15 15 15 16 17 18 20 21 22 23 23 23
15 15 16 16 17 17 16 15 14 13 12 12 12 13 13 14 15 16 16 16 16 16 16 17 18 18 19 19 19 18 16 15 15 15 15 15 14 14 15 15 15 15 14 14 14 13 13 14 14 15 15 14 14 14 14 14 14 15 15 16 17 19 20 22 22 23 23 23 22
15 15 15 16 16 16 15 14 13 12 12 12 12 13 14 15 16 16 17 16 16 16 16 17 17 18 19 19 19 18 17 16 16 16 15 14 14 14 14 15 15 14 14 14 13 13 13 13 14 14 14 14 14 14 14 14 15 16 17 18 20 22 23 23 23 23 22 22 21
15 15 15 15 15 15 14 13 13 12 12 12 12 13 14 15 17 17 17 17 17 16 16 16 17 17 18 18 18 18 18 18 17 16 15 13 13 13 13 14 14 14 14 13 13 12 12 12 13 13 13 13 13 14 14 15 16 17 19 21 23 24 24 23 22 22 21 21 20
15 15 15 15 15 14 13 13 12 12 12 12 13 14 16 17 18 18 18 18 17 16 16 16 16 16 17 17 17 18 18 18 17 15 13 12 11 12 12 13 13 13 13 12 12 11 10 11 12 12 13 13 14 14 15 16 18 20 22 23 24 24 23 22 22 21 21 21 20
15 15 15 14 14 13 12 12 12 12 12 13 15 16 18 19 19 19 18 17 17 16 16 16 16 16 17 17 18 18 18 17 15 13 11 10 10 11 11 11 11 11 12 12 12 11 10 9 11 12 13 13 14 16 17 19 21 22 24 24 24 23 22 22 21 21 21 21 20
15 14 14 13 13 12 12 12 12 13 14 15 16 18 19 19 19 18 17 16 16 16 16 17 17 17 18 18 19 18 16 14 12 10 9 9 9 10 11 10 10 11 11 12 12 11 10 9 10 11 13 14 16 17 19 21 22 24 24 24 23 23 22 21 21 22 22 21 20
14 14 13 13 12 12 11 12 13 14 15 17 18 18 18 18 17 17 16 16 16 16 17 18 18 19 19 19 19 17 14 10 8 8 8 9 10 10 10 10 10 11 12 12 12 11 11 10 10 11 13 15 17 18 20 22 23 23 23 23 23 23 22 21 21 21 21 21 20
14 13 12 12 11 11 12 12 13 15 16 18 18 17 17 16 16 16 16 16 16 17 18 19 19 20 20 19 17 13 10 8 8 8 8 9 10 10 10 10 11 12 13 13 13 12 12 12 11 12 13 16 17 19 20 22 23 23 23 22 22 22 21 21 20 20 20 20 20
13 12 11 10 10 11 12 13 15 16 16 17 16 16 15 15 15 16 16 17 17 18 18 19 19 19 18 16 13 9 7 7 8 9 9 10 11 11 10 10 11 12 13 13 13 13 13 13 13 13 14 15 17 19 20 21 22 22 22 21 21 20 20 20 20 19 19 19 19
Wind_Direction
33 32 30 30 29 29 29 27 26 25 24 23 22 20 17 15 12 8 5 2 360 357 355 355 355 354 352 352 351 350 349 348 348 350 351 352 353 355 357 1 7 13 20 26 31 34 35 35 36 37 38 38 38 38 38 37 37 36 35 34 34 34 35 35 36 35 33 31 29
31 30 28 27 26 26 25 25 23 22 21 20 18 16 13 11 8 5 2 360 357 355 354 354 354 353 351 351 351 351 351 352 354 355 356 358 1 5 10 15 21 26 30 32 35 36 36 36 36 37 37 37 36 36 35 34 32 30 28 28 27 25 25 27 27 27 26 25 23
29 27 25 24 23 23 23 22 21 19 17 16 14 12 10 7 5 3 360 357 355 354 354 354 353 352 351 352 352 354 356 357 358 360 3 7 12 16 20 24 27 29 30 30 30 30 29 28 28 28 29 29 29 28 26 24 22 21 20 18 16 16 16 18 17 19 21 19 17
26 25 23 22 22 21 21 19 17 15 14 11 9 8 6 4 2 360 357 355 354 354 353 353 353 353 353 354 356 358 360 2 3 6 11 17 21 23 24 23 24 24 23 22 21 20 18 16 14 13 13 14 13 13 12 11 12 11 10 8 7 7 7 8 11 14 15 14 12
24 23 22 20 19 18 17 15 13 12 10 8 6 5 3 2 360 358 356 355 355 354 353 354 354 356 357 359 0 2 4 7 9 12 17 23 25 24 21 17 15 13 11 9 8 7 5 3 360 358 356 355 354 355 357 359 359 358 357 357 356 357 360 4 6 8 9 9 7
22 21 19 18 16 15 14 12 11 9 7 5 4 3 2 0 358 356 354 354 354 355 356 357 358 0 2 4 5 7 8 10 13 14 17 22 23 21 15 9 4 1 358 355 353 351 350 347 344 342 341 340 340 340 342 344 344 343 342 344 346 349 353 358 0 1 1 1 1
20 18 17 15 14 12 11 10 8 7 5 4 3 2 0 359 357 355 354 354 356 358 0 2 4 5 7 8 9 10 11 12 13 14 14 14 16 14 10 4 359 354 349 344 340 337 335 333 330 329 329 331 330 329 329 329 330 331 333 336 339 343 346 350 351 352 353 353 354
18 16 14 13 11 9 8 7 6 5 4 3 1 0 359 357 355 354 354 355 359 2 5 6 8 9 11 11 11 11 10 10 10 10 8 7 7 7 5 1 357 352 346 339 333 327 324 322 319 318 320 323 324 322 320 318 319 322 326 330 332 335 338 340 342 343 344 346 348
15 14 12 10 9 7 6 5 4 3 2 1 360 359 357 356 354 353 354 357 1 5 8 9 10 11 11 11 9 8 7 6 4 3 2 0 359 359 358 356 352 349 345 339 331 324 318 314 311 311 313 316 317 315 312 310 310 312 317 321 324 327 329 331 333 334 337 340 343
12 11 9 7 6 5 4 2 1 1 360 359 358 357 356 354 353 352 353 356 1 6 9 9 8 8 7 5 3 1 359 358 356 355 354 353 352 351 350 348 345 342 340 336 331 325 317 311 306 305 307 311 312 310 306 304 304 306 310 315 319 322 323 324 325 328 331 335 339
10 8 6 5 3 3 1 1 359 359 358 357 356 355 355 353 351 351 352 355 1 5 8 7 4 1 359 357 354 351 350 348 347 346 345 344 344 343 342 340 338 335 333 331 329 326 321 314 307 304 305 308 310 308 305 302 302 305 309 314 318 320 320 320 321 323 327 331 335
7 5 3 2 1 1 0 359 358 357 356 355 355 354 353 352 350 349 350 354 359 2 3 2 359 355 351 348 346 344 343 341 340 339 338 337 336 336 334 333 331 329 327 327 327 326 324 320 313 307 306 309 310 308 305 303 304 308 311 315 318 319 318 316 316 318 322 327 332
4 2 1 1 0 360 359 358 357 355 354 353 353 353 352 351 349 347 348 351 355 357 358 357 353 350 346 344 343 342 341 340 338 337 335 333 332 329 327 325 323 322 321 322 324 326 326 324 320 315 311 311 311 309 306 305 307 309 312 314 316 316 314 312 311 312 316 321 327
2 1 360 359 359 358 357 357 355 354 352 351 351 351 350 349 347 346 346 348 351 351 350 349 348 346 345 344 344 344 344 343 340 338 335 332 329 326 322 320 318 318 318 321 324 326 327 327 325 320 316 313 311 308 305 305 306 308 309 310 311 310 307 305 304 306 310 317 322
1 359 358 358 357 356 356 355 353 352 350 349 349 349 348 347 345 344 343 344 346 345 343 342 343 344 345 346 346 347 348 347 346 343 340 336 332 328 325 322 321 321 323 326 329 331 332 331 328 324 319 315 312 309 306 304 304 304 305 305 304 303 300 298 298 301 306 313 318
360 358 357 356 355 354 353 352 351 349 348 347 347 347 346 345 343 341 339 338 338 339 339 340 340 343 346 350 351 351 352 353 352 350 348 345 342 339 336 334 334 335 337 339 341 341 340 337 334 329 324 320 316 313 310 306 304 303 302 301 299 297 295 294 295 298 304 310 314
359 358 356 355 353 352 351 350 349 348 346 345 344 344 344 342 339 336 334 332 332 334 337 340 342 345 349 353 356 356 355 355 355 354 353 351 350 349 348 347 347 347 348 348 347 346 344 341 337 333 329 324 321 318 315 312 308 305 303 300 297 294 292 292 293 298 303 308 311
359 357 356 354 352 351 350 349 348 346 345 343 342 341 340 336 332 328 326 326 327 331 336 342 345 348 351 354 356 356 355 354 354 354 353 352 352 352 351 351 350 350 349 348 346 345 343 340 337 334 330 327 324 321 319 317 314 310 306 301 296 293 291 291 294 298 303 307 310
358 357 355 353 351 350 348 348 347 345 344 341 339 336 333 328 323 319 320 322 326 330 334 339 344 348 350 351 351 352 352 352 351 350 350 350 350 350 350 350 349 348 347 346 344 342 341 338 336 333 330 326 324 322 321 319 317 314 310 304 298 294 292 292 295 299 303 307 309
358 356 354 352 350 348 347 346 346 344 342 339 335 330 326 320 315 313 315 319 324 328 330 334 338 342 343 344 345 346 347 347 347 346 347 347 348 348 348 348 347 346 345 344 343 341 339 337 334 331 329 326 324 322 321 319 318 315 312 306 301 297 295 295 297 301 304 307 309
356 354 352 350 348 347 346 345 344 343 341 337 332 326 320 314 310 309 311 316 321 324 326 327 330 334 336 337 338 340 341 342 342 342 342 344 345 345 345 344 344 344 343 343 341 339 336 334 332 330 328 326 324 322 320 319 317 315 312 308 304 301 299 299 300 302 305 308 309
354 352 350 349 347 345 344 343 343 342 340 336 330 323 317 311 307 306 309 313 318 321 322 322 324 327 329 330 332 333 335 336 336 337 338 340 341 341 340 340 340 340 340 340 338 336 334 332 331 329 328 326 324 322 320 317 315 313 310 308 305 303 302 300 300 302 304 307 308
351 350 348 347 345 344 343 342 341 341 339 335 329 322 315 309 306 306 308 313 318 320 320 320 320 321 323 325 327 328 328 329 329 331 333 335 336 336 335 335 335 336 336 335 334 332 331 329 329 328 328 327 325 322 319 316 313 311 309 308 306 304 301 300 299 300 302 304 304
348 347 346 345 344 342 341 340 339 339 338 334 329 322 316 311 308 308 311 316 319 320 320 319 317 317 317 321 324 325 324 322 322 324 327 330 331 331 331 330 331 331 332 332 330 329 328 327 327 327 327 326 325 323 319 315 312 309 308 308 307 305 303 302 302 301 302 303 303
344 343 343 342 341 340 339 338 337 337 336 333 329 322 317 314 313 314 317 320 322 321 320 318 316 315 315 318 322 323 321 318 316 317 320 324 326 326 326 327 327 328 329 329 327 326 326 325 325 325 326 326 325 324 320 316 312 310 309 309 309 309 309 308 307 307 307 306 305
341 340 340 339 339 338 337 336 335 334 333 331 327 322 319 317 318 321 323 324 323 322 320 318 317 316 316 318 321 322 319 314 311 311 314 319 322 323 323 324 325 326 326 326 325 324 324 323 324 324 325 326 325 323 321 318 316 313 312 311 311 312 313 313 312 312 311 311 310
338 337 336 336 336 335 334 333 333 332 331 329 325 321 319 320 322 324 325 325 323 322 320 320 319 319 320 321 322 322 319 312 307 306 309 314 318 320 321 322 323 324 324 324 323 323 322 322 323 324 325 326 325 324 322 320 319 317 315 313 313 313 313 314 314 313 311 310 309
335 334 333 333 333 332 332 331 330 329 327 325 322 319 318 320 323 325 325 325 324 323 322 322 322 322 323 324 325 324 321 313 305 302 304 309 314 317 319 321 322 323 323 322 322 322 322 322 322 323 325 325 325 324 324 323 322 320 318 316 314 313 312 312 311 310 309 307 306
333 331 330 330 330 330 329 328 327 325 324 321 318 316 317 319 322 324 324 324 324 325 325 325 325 324 324 325 326 325 323 317 309 302 301 305 310 314 317 319 321 321 322 322 322 322 322 322 322 323 324 325 325 324 324 323 322 321 319 317 315 313 312 312 311 310 309 308 307
330 329 327 327 327 327 327 326 324 322 320 317 315 314 316 319 321 323 324 324 324 324 325 325 325 324 323 322 323 324 324 322 315 307 302 302 306 311 314 317 319 321 321 322 322 322 322 321 321 322 323 324 324 323 322 322 321 320 319 317 315 314 313 312 312 311 310 309 309
328 326 325 324 325 325 325 324 322 320 317 314 312 313 315 318 321 322 323 323 322 322 322 322 322 321 319 318 317 319 321 322 320 313 305 301 303 308 313 316 319 321 322 323 323 323 322 321 321 322 323 323 322 321 320 320 319 318 317 316 315 315 314 314 313 312 311 311 310
326 324 323 323 323 323 323 322 321 318 315 312 311 312 315 318 320 321 322 321 320 320 319 319 319 318 317 315 314 314 315 318 318 314 308 302 302 306 311 316 320 321 323 324 325 324 322 320 320 321 322 322 320 319 318 317 317 316 315 315 316 316 316 316 315 314 312 312 311
325 323 322 322 322 322 321 321 320 318 315 313 312 314 316 319 321 322 322 321 319 318 317 318 318 318 317 316 315 313 313 313 313 312 309 305 304 306 311 317 320 322 324 326 326 325 322 320 321 321 321 320 319 317 316 315 314 314 315 316 317 318 318 318 316 315 313 313 312
324 323 322 321 321 321 320 320 319 318 316 315 316 318 320 322 324 324 323 321 319 317 316 316 317 318 319 318 317 315 313 312 311 311 310 307 306 308 313 318 321 323 325 328 328 327 324 321 321 321 320 319 317 316 316 315 315 317 318 319 320 320 320 319 318 316 315 314 314
324 322 321 321 320 319 319 319 318 318 317 318 320 322 324 326 326 325 323 321 318 316 315 315 316 317 317 318 318 316 314 313 312 311 310 309 310 312 316 319 321 323 326 330 331 331 327 323 321 320 320 319 318 317 317 318 319 320 322 323 323 323 323 322 321 320 319 318 318
324 322 320 319 318 317 317 316 316 317 318 320 323 325 326 326 326 325 323 320 317 315 314 314 314 315 316 316 316 315 314 313 313 312 312 312 314 317 319 319 320 323 327 330 333 333 331 325 322 321 321 321 321 321 321 322 323 324 326 326 327 327 327 327 326 325 324 323 324
323 320 318 316 315 314 314 314 315 317 319 321 323 324 325 325 324 323 322 320 318 316 315 314 315 315 316 316 315 313 312 313 314 315 316 318 319 319 319 318 319 321 325 329 330 331 332 329 325 324 324 325 325 325 325 326 327 328 329 330 331 331 332 331 330 329 328 329 329
321 318 315 313 312 312 312 313 315 318 320 321 322 323 323 322 322 322 321 321 320 319 319 318 318 318 317 315 312 311 311 315 319 321 323 323 322 320 319 317 316 319 323 326 327 327 328 331 330 329 329 329 329 328 328 329 330 331 332 334 334 335 334 334 333 331 331 332 333
318 315 313 311 311 311 313 315 318 320 321 322 323 322 321 321 321 321 321 322 322 322 322 322 321 319 317 315 312 312 315 323 327 329 329 327 324 322 321 318 317 318 321 324 325 324 325 327 330 332 333 331 331 330 330 331 332 333 335 336 337 336 335 334 332 331 331 333 334
315 313 312 312 313 314 316 320 322 323 323 323 322 321 321 321 321 321 322 322 323 323 323 322 320 319 317 315 313 316 323 332 332 332 332 330 329 327 325 322 319 319 321 323 323 324 324 324 328 332 334 333 332 331 331 332 333 335 336 338 337 336 333 332 331 330 330 331 332
314 313 314 316 318 320 322 324 325 325 324 323 322 321 321 321 322 323 323 324 324 323 321 320 319 318 317 315 316 322 335 340 336 335 336 337 336 334 331 327 323 321 322 322 322 322 324 326 329 333 336 336 333 332 332 333 334 335 336 337 336 333 331 329 329 328 327 327 327
Height
854 853 853 852 852 851 850 850 850 849 848 848 847 846 846 845 844 844 843 842 841 840 839 838 838 837 836 835 835 834 833 832 831 830 829 828 827 826 826 825 825 824 824 823 822 822 822 821 821 821 820 820 820 819 819 818 818 817 817 817 817 816 815 815 814 813 812 811 810
854 853 853 852 852 851 850 850 849 849 848 848 847 846 846 845 844 843 842 841 841 840 839 838 837 837 836 835 835 834 833 832 831 830 829 828 828 827 826 825 825 825 824 823 823 822 822 821 821 820 820 820 819 819 819 818 818 817 817 817 816 816 815 815 814 813 812 811 810
854 853 853 852 851 851 850 850 849 849 848 848 847 846 846 845 844 843 842 841 840 840 839 838 837 836 836 835 834 833 832 831 831 830 829 829 828 827 827 826 826 825 825 824 824 823 822 822 821 821 820 820 819 819 818 818 817 817 816 816 816 815 815 814 814 813 811 811 810
854 853 852 852 851 851 850 850 850 849 848 848 847 846 845 845 844 843 842 841 840 839 839 838 837 836 835 834 834 833 832 831 830 830 829 829 828 827 827 826 826 825 825 825 824 824 823 823 822 821 821 820 820 819 818 817 817 816 816 815 815 815 815 814 813 812 811 811 810
854 853 853 852 852 851 850 850 850 849 848 848 847 846 845 844 843 842 841 840 840 839 838 837 836 836 835 834 833 832 832 831 830 830 829 829 828 827 827 826 826 825 825 825 824 824 823 823 822 822 821 821 820 819 818 818 817 816 815 815 815 814 814 813 812 812 811 810 810
854 853 853 852 852 851 851 850 850 849 848 847 846 845 845 844 843 842 841 840 839 839 838 837 836 835 835 834 833 832 831 831 830 830 829 828 828 827 827 826 826 825 825 824 824 824 823 823 822 822 821 820 820 819 819 818 817 816 815 815 814 814 813 812 812 811 811 810 810
854 854 853 852 852 851 851 850 849 849 848 847 846 845 844 843 842 841 840 840 839 838 837 837 836 835 834 834 833 832 831 831 830 830 829 828 828 827 826 826 825 825 825 824 824 823 823 822 822 821 820 820 820 819 818 817 817 816 815 815 814 813 813 812 811 811 810 810 809
854 854 853 853 852 851 850 850 849 848 848 847 846 845 844 843 842 841 840 839 839 838 837 836 836 835 834 834 833 832 831 830 830 830 829 828 827 827 826 826 825 825 824 824 823 823 822 822 821 820 820 820 819 818 818 817 816 816 815 814 814 813 812 812 811 810 810 809 808
854 854 853 853 852 851 850 850 849 848 847 846 845 845 843 842 841 840 840 839 838 838 837 836 836 835 834 834 833 832 831 830 830 829 829 828 827 827 826 825 825 825 824 823 823 822 821 821 820 820 819 819 818 818 817 817 816 815 815 814 813 813 812 811 810 810 809 809 808
854 854 853 852 852 851 850 850 849 848 847 846 845 844 843 842 841 840 840 839 838 837 837 836 835 835 834 833 833 832 831 830 830 829 828 828 827 826 826 825 825 824 823 823 822 822 821 820 820 819 819 818 818 817 817 816 815 815 814 814 813 812 811 811 810 809 809 808 807
854 854 853 852 851 851 850 849 848 847 846 845 845 843 842 842 841 840 839 839 838 837 837 836 835 835 834 833 832 832 831 830 830 829 828 827 827 826 825 825 824 824 823 822 821 821 820 820 819 819 818 818 817 817 816 815 815 815 814 813 812 812 811 810 810 809 808 807 806
854 853 853 852 851 850 850 849 848 847 846 845 844 843 842 841 840 840 839 838 838 837 836 836 835 834 834 833 832 831 830 830 829 828 827 827 826 825 825 824 824 823 822 821 821 820 819 819 818 818 817 817 817 816 815 815 815 814 813 812 812 811 810 810 809 808 808 807 806
853 853 852 851 850 850 849 848 847 846 845 844 843 842 841 840 840 839 839 838 837 837 836 835 835 834 833 832 831 831 830 829 828 828 827 826 825 825 824 823 823 822 821 821 820 819 819 818 817 817 817 816 816 815 815 814 814 813 812 812 811 810 810 809 809 808 807 806 806
853 852 851 851 850 849 848 847 846 845 844 843 842 842 841 840 840 839 838 838 837 836 836 835 834 834 833 832 831 830 829 829 828 827 826 825 825 824 823 823 822 821 820 820 819 819 818 817 817 816 816 816 815 815 815 814 813 812 812 811 810 810 809 808 808 807 807 806 805
852 851 851 850 849 848 847 846 845 845 844 843 842 841 840 840 839 838 838 837 836 836 835 835 834 833 832 831 830 830 829 828 827 827 826 825 824 824 823 822 821 820 820 819 819 818 817 817 816 816 816 815 815 814 814 813 812 811 811 810 810 809 808 808 807 806 806 805 804
851 851 850 849 848 847 846 845 845 844 843 842 841 840 840 839 839 838 837 837 836 835 835 834 833 832 832 831 830 830 829 828 827 826 825 825 824 823 822 821 821 820 819 819 818 818 817 817 816 816 815 815 814 814 813 812 811 810 810 809 809 808 807 807 806 805 805 804 804
850 850 849 848 847 846 846 845 844 843 842 841 841 840 839 839 838 837 837 836 835 835 834 834 833 832 831 831 830 829 828 828 827 826 825 824 823 823 822 821 820 820 819 819 818 817 817 816 816 815 815 814 814 813 812 811 811 810 809 808 808 807 806 806 805 805 804 803 803
850 849 848 847 846 846 845 844 844 843 842 841 840 839 839 838 837 837 836 835 835 834 834 833 832 832 831 830 830 829 828 827 826 825 825 824 823 822 822 821 820 820 819 819 818 817 817 816 816 815 815 814 813 812 811 811 810 809 808 808 807 806 805 805 804 804 803 802 802
849 848 847 846 846 845 845 844 843 842 841 840 839 839 838 837 837 836 835 835 834 834 833 832 832 831 830 830 829 828 828 827 826 825 824 824 823 822 821 821 820 820 819 818 818 817 816 816 815 815 814 813 812 812 811 810 809 809 808 807 806 805 805 804 804 803 802 801 801
848 847 846 846 845 845 844 843 842 841 840 840 839 838 837 837 836 835 835 834 834 833 833 832 831 830 830 829 829 828 827 826 825 825 824 823 822 821 821 820 820 819 818 818 817 816 816 815 815 814 813 812 812 811 810 809 809 808 807 806 805 805 804 804 803 802 801 801 800
847 846 846 845 845 844 843 842 841 840 840 839 838 837 837 836 835 835 834 834 833 833 832 831 830 830 829 828 828 827 826 825 825 824 823 823 822 821 820 820 819 819 818 817 816 816 815 815 814 813 812 812 811 810 809 809 808 807 806 805 805 804 804 803 802 801 801 800 800
846 846 845 845 844 843 842 841 840 840 839 838 837 836 836 835 835 834 834 833 833 832 831 831 830 829 828 828 827 826 825 825 824 823 823 822 821 820 820 819 819 818 817 816 816 815 815 814 813 812 811 811 810 809 809 808 807 806 805 805 804 803 803 802 801 801 800 799 798
845 845 844 844 843 842 841 840 840 839 838 837 836 836 835 835 834 834 833 833 832 831 831 830 830 829 828 827 826 825 825 824 823 823 822 821 820 820 819 819 818 817 816 816 815 814 814 813 812 811 810 810 809 808 808 807 806 805 805 804 803 802 802 801 800 800 799 798 797
845 844 844 843 842 841 840 840 839 838 837 836 836 835 834 834 833 833 832 832 831 831 830 830 829 828 827 826 825 825 824 823 822 822 821 820 820 819 818 818 817 816 815 815 814 813 813 812 811 810 810 809 808 807 807 806 805 804 803 803 802 801 801 800 800 799 798 797 796
844 843 843 842 841 840 840 839 838 837 836 836 835 834 834 833 833 832 832 831 831 830 830 829 828 827 826 825 825 824 823 822 821 821 820 820 819 818 818 817 816 815 815 814 813 813 812 811 810 809 809 808 807 806 806 805 804 803 802 801 800 800 799 799 798 797 796 795 795
843 842 842 841 840 840 839 838 837 836 835 835 834 834 833 832 832 831 831 830 830 829 829 828 827 826 825 825 824 823 822 821 820 820 819 819 818 817 817 816 815 815 814 813 812 812 811 810 810 809 808 807 806 805 805 804 803 802 801 800 800 799 798 797 796 795 795 794 793
842 841 841 840 840 839 838 837 836 835 835 834 833 833 832 832 831 831 830 830 829 828 828 827 826 825 824 824 823 822 821 820 820 819 818 818 817 816 815 815 814 814 813 812 811 811 810 809 809 808 807 806 805 805 804 803 802 801 800 800 799 798 796 795 795 794 793 792 792
841 840 840 839 839 838 837 836 835 835 834 833 833 832 831 831 830 830 829 829 828 827 827 826 825 824 824 823 822 821 820 820 819 818 818 817 816 815 815 814 813 813 812 811 810 810 809 808 807 807 806 805 804 804 803 802 801 800 799 798 797 796 795 795 794 793 792 791 790
840 839 839 838 838 837 836 835 835 834 833 832 832 831 831 830 830 829 829 828 827 826 825 825 824 823 823 822 821 820 820 819 818 817 817 816 815 815 814 813 812 811 811 810 809 809 808 807 806 806 805 804 804 803 802 801 800 799 798 797 796 795 795 793 792 791 790 789 788
839 839 838 837 837 836 835 835 834 833 832 832 831 830 830 830 829 828 828 827 826 825 825 824 823 822 822 821 820 820 819 818 817 817 816 815 815 814 813 812 811 810 810 809 808 807 807 806 805 805 804 803 802 802 801 800 799 798 797 796 795 794 793 792 791 790 789 788 786
838 838 837 836 836 835 834 834 833 832 831 831 830 830 830 829 828 827 827 826 825 825 824 823 822 821 821 820 819 818 818 817 816 816 815 815 814 813 812 811 810 810 809 808 807 806 806 805 805 804 803 802 801 800 800 799 798 797 796 795 794 793 792 791 790 789 788 786 785
837 837 836 835 835 834 833 833 832 831 831 830 830 829 829 828 827 827 826 825 824 823 823 822 821 820 820 819 818 817 817 816 815 815 814 814 813 812 812 811 810 809 808 807 806 806 805 804 804 803 802 801 800 800 799 798 797 796 795 794 793 792 791 790 789 787 786 785 783
837 836 835 835 834 833 832 832 831 830 830 829 829 828 828 827 826 826 825 824 823 823 822 821 820 819 819 818 817 816 815 815 814 814 813 813 812 811 811 810 810 809 808 807 806 805 804 803 803 802 801 800 800 799 798 797 796 795 794 793 792 791 790 789 787 786 785 783 782
836 835 834 834 833 832 831 831 830 830 829 828 828 827 827 826 825 825 824 823 822 822 821 820 819 818 817 817 816 815 814 814 813 812 812 811 811 810 810 810 809 808 807 806 805 804 803 803 802 801 800 800 799 798 797 796 795 794 793 792 791 790 789 787 786 785 783 782 780
835 834 833 833 832 831 831 830 829 829 828 828 827 826 826 825 825 824 823 822 821 820 820 819 818 817 816 815 815 814 813 812 812 811 810 810 810 810 809 809 808 807 806 805 804 804 803 802 801 800 800 799 798 797 796 795 794 793 792 791 790 789 787 786 784 783 782 780 779
834 833 832 831 831 830 830 829 828 828 827 827 826 825 825 824 824 823 822 821 820 819 819 818 817 816 815 814 814 813 812 811 810 810 809 809 809 808 808 808 807 807 806 805 804 803 802 801 800 800 799 798 797 796 795 794 793 792 791 790 788 787 785 784 783 781 780 779 778
833 832 831 830 830 830 829 828 828 827 826 826 825 825 824 823 822 822 821 820 819 818 817 816 815 815 814 813 812 811 810 810 809 809 808 808 808 807 807 807 806 806 805 804 803 802 802 801 800 799 798 797 796 795 794 793 792 790 789 788 786 785 784 782 781 780 779 777 776
832 831 830 830 829 828 828 827 827 826 825 825 824 824 823 822 821 821 820 819 818 817 816 815 814 814 813 812 811 810 809 809 808 808 807 807 807 806 806 806 805 805 804 804 803 802 801 801 800 798 797 796 795 794 793 791 790 789 788 786 785 784 782 781 780 779 777 776 775
831 830 830 829 828 827 827 826 826 825 825 824 824 823 822 821 820 820 819 818 817 816 815 814 813 812 812 811 810 809 808 808 807 807 807 806 806 806 805 805 805 804 803 803 802 801 800 800 799 798 797 795 794 793 792 790 789 788 786 785 784 782 781 780 779 777 776 775 774
830 829 829 828 827 827 826 826 825 825 824 823 823 822 821 820 820 819 818 817 816 815 814 813 812 811 810 810 809 808 807 807 807 806 806 806 805 805 805 804 804 803 803 802 801 801 800 799 798 798 796 795 794 792 791 790 788 786 785 784 782 781 780 779 778 777 775 774 773
829 828 828 827 827 826 825 825 825 824 824 823 822 821 820 820 819 818 817 816 815 815 814 812 811 810 810 809 808 807 807 807 806 806 806 805 805 805 804 804 803 803 802 801 801 800 799 798 798 797 796 795 793 791 790 789 787 785 784 783 782 780 779 778 776 775 775 773 772